sat.trackr.live / text

‹ back to catalog

STARLINK-3089

NORAD 49166 · 2021-082AN

PAYLOAD ACTIVE UNKNOWN

§ Identity

Operator
Country
US
Launch date
2021-09-14
Launch site
AFWTR
Launch vehicle
Mass (kg)
RCS (m²)

Purposes: comms

External: N2YO · Heavens-Above · Gunter

§ Orbital elements

Epoch: 2026-05-25T02:59:19.120704Z

Period
96.16 min
Inclination
70.0006°
Eccentricity
0.0003142
Mean motion
14.97522809 rev/d
Perigee alt
572.4 km
Apogee alt
576.7 km
Semi-major
6,952.7 km
B*
-9.9738e-5
RAAN
82.7714°
Arg perigee
268.1078°
Mean anomaly
91.9721°
Rev number
25,909

§ Raw data

STARLINK-30891 49166U 21082AN  26145.12452686 -.00001258  00000+0 -99738-4 0  99982 49166  70.0006  82.7714 0003142 268.1078  91.9721 14.97522809259093

JSON: /api/v1/satellites/49166 · /tle

For live sub-satellite position, see the globe view (requires WebGL).

§ Visibility from observer

Set your observer location to see the next 7 days of passes ≥ 10°. The values pass through the URL so the page stays shareable.

No JS? Fill the form by hand. The geolocation button needs JavaScript.